TimeMDT,TemperatureF,Dew PointF,Humidity,Sea Level PressureIn,VisibilityMPH,Wind Direction,Wind SpeedMPH,Gust SpeedMPH,PrecipitationIn,Events,Conditions,WindDirDegrees,DateUTC
12:53 AM,46.9,28.0,48,29.91,10.0,WSW,3.5,-,N/A,,Scattered Clouds,240,2013-04-06 06:53:00
1:53 AM,43.0,28.0,56,29.92,10.0,WNW,5.8,-,N/A,,Scattered Clouds,300,2013-04-06 07:53:00
2:53 AM,45.0,28.0,52,29.90,10.0,WNW,6.9,-,N/A,,Overcast,300,2013-04-06 08:53:00
3:53 AM,42.1,28.9,60,29.89,10.0,West,3.5,-,N/A,,Overcast,260,2013-04-06 09:53:00
4:53 AM,41.0,28.0,60,29.87,10.0,West,4.6,-,N/A,,Scattered Clouds,280,2013-04-06 10:53:00
5:53 AM,41.0,28.0,60,29.88,10.0,Calm,Calm,-,N/A,,Clear,0,2013-04-06 11:53:00
6:53 AM,39.9,28.0,63,29.88,10.0,Calm,Calm,-,N/A,,Partly Cloudy,0,2013-04-06 12:53:00
7:53 AM,42.1,28.0,58,29.89,10.0,Calm,Calm,-,N/A,,Mostly Cloudy,0,2013-04-06 13:53:00
8:53 AM,44.1,28.9,55,29.88,10.0,Calm,Calm,-,N/A,,Mostly Cloudy,0,2013-04-06 14:53:00
9:53 AM,46.9,30.0,52,29.87,10.0,North,4.6,-,N/A,,Clear,360,2013-04-06 15:53:00
10:53 AM,51.1,30.9,46,29.85,10.0,Calm,Calm,-,N/A,,Partly Cloudy,0,2013-04-06 16:53:00
11:53 AM,53.1,33.1,47,29.85,10.0,West,15.0,-,N/A,,Overcast,280,2013-04-06 17:53:00
12:53 PM,51.1,37.0,59,29.86,10.0,WNW,10.4,-,0.00,,Scattered Clouds,290,2013-04-06 18:53:00
1:53 PM,55.0,32.0,42,29.83,10.0,West,10.4,-,N/A,,Partly Cloudy,270,2013-04-06 19:53:00
2:53 PM,52.0,34.0,50,29.84,10.0,WNW,13.8,23.0,N/A,,Overcast,290,2013-04-06 20:53:00
3:12 PM,51.8,32.0,47,29.81,10.0,SW,13.8,-,N/A,,Overcast,230,2013-04-06 21:12:00
3:53 PM,50.0,35.1,57,29.85,10.0,West,4.6,-,N/A,,Overcast,280,2013-04-06 21:53:00
4:53 PM,43.0,36.0,76,29.91,10.0,West,23.0,36.8,0.00,Rain,Light Rain,270,2013-04-06 22:53:00
4:59 PM,42.8,35.6,76,29.85,8.0,West,15.0,31.1,0.01,Rain,Light Rain,260,2013-04-06 22:59:00
5:13 PM,44.6,35.6,71,29.84,10.0,West,15.0,23.0,0.01,,Overcast,270,2013-04-06 23:13:00
5:53 PM,46.0,33.1,61,29.90,10.0,West,19.6,25.3,0.01,,Partly Cloudy,280,2013-04-06 23:53:00
6:53 PM,48.0,30.0,50,29.90,10.0,West,12.7,-,N/A,,Clear,270,2013-04-07 00:53:00
7:53 PM,46.9,28.0,48,29.88,10.0,West,10.4,-,N/A,,Clear,270,2013-04-07 01:53:00
8:53 PM,45.0,27.0,49,29.88,10.0,West,8.1,-,N/A,,Clear,260,2013-04-07 02:53:00
9:53 PM,45.0,28.0,52,29.88,10.0,West,9.2,-,N/A,,Overcast,260,2013-04-07 03:53:00
10:53 PM,43.0,28.0,56,29.88,10.0,WNW,8.1,-,N/A,,Mostly Cloudy,290,2013-04-07 04:53:00
11:53 PM,44.1,28.0,53,29.88,10.0,WSW,10.4,-,N/A,,Overcast,250,2013-04-07 05:53:00